Location: *
(38.9555°S, 57.3572°E)
Time: 01:54:01
(UTC+00:00)

Cosmos 1626 Rocket - Pass Details

Date: 15 July 2020
Orbit: 602 x 632 km, 82.5° (Epoch: 06 August)

Event Time Altitude Azimuth Distance (km) Brightness Sun altitude
Rises 13:48:41 0° 179° (S) 2,923 6.8 -8.1°
Reaches altitude 10° 13:51:03 10° 171° (S) 2,014 5.9 -8.5°
Maximum altitude 13:55:14 39° 102° (ESE) 956 4.0 -9.3°
Drops below altitude 10° 13:59:23 10° 33° (NNE) 2,003 6.0 -10.1°
Sets 14:01:44 0° 24° (NNE) 2,906 7.0 -10.5°
